This is the latest recevied weather packets stored in our database for station/object GBTWP-2. If no packets are shown the sender has not sent any weather packets the latest 10 day(s).
| Time | Temp. | Humidity | Pressure | Rain* | Wind** | Luminosity | Snow |
|---|---|---|---|---|---|---|---|
| 1788651419 | 21.67° C | 71% | 1019.3 hPa | 0 mm | - | 14 W/m² | - |
| 1788651120 | 22.22° C | 71% | 1019.2 hPa | 0 mm | - | 16 W/m² | - |
| 1788650818 | 22.22° C | 71% | 1019.1 hPa | 0 mm | - | 19 W/m² | - |
| 1788650520 | 22.22° C | 70% | 1019.1 hPa | 0 mm | - | 20 W/m² | - |
| 1788650219 | 22.78° C | 69% | 1019 hPa | 0 mm | - | 25 W/m² | - |
| 1788649919 | 22.78° C | 69% | 1019.2 hPa | 0 mm | - | 27 W/m² | - |
| 1788649619 | 22.78° C | 69% | 1019.1 hPa | 0 mm | - | 26 W/m² | - |
| 1788649319 | 23.33° C | 69% | 1019.3 hPa | 0 mm | - | 28 W/m² | - |
| 1788649020 | 23.33° C | 68% | 1019.2 hPa | 0 mm | - | 30 W/m² | - |
| 1788648720 | 23.33° C | 68% | 1019 hPa | 0 mm | - | 31 W/m² | - |
| 1788648419 | 23.89° C | 66% | 1019 hPa | 0 mm | - | 66 W/m² | - |
| 1788648120 | 23.89° C | 66% | 1018.8 hPa | 0 mm | - | 86 W/m² | - |
| 1788647819 | 24.44° C | 64% | 1019 hPa | 0 mm | - | 95 W/m² | - |
| 1788647520 | 24.44° C | 62% | 1018.7 hPa | 0 mm | - | 110 W/m² | - |
| 1788647219 | 23.89° C | 64% | 1018.9 hPa | 0 mm | - | 74 W/m² | - |
| 1788646945 | 24.44° C | 62% | 1018.8 hPa | 0 mm | - | 59 W/m² | - |
| 1788646619 | 24.44° C | 61% | 1018.5 hPa | 0 mm | - | 86 W/m² | - |
| 1788646320 | 25° C | 62% | 1018.6 hPa | 0 mm | - | 102 W/m² | - |
| 1788646019 | 24.44° C | 61% | 1018.6 hPa | 0 mm | - | 117 W/m² | - |
| 1788645720 | 24.44° C | 61% | 1018.7 hPa | 0 mm | - | 122 W/m² | - |
| 1788645419 | 24.44° C | 61% | 1018.7 hPa | 0 mm | - | 59 W/m² | - |
| 1788645120 | 24.44° C | 61% | 1018.5 hPa | 0 mm | - | 41 W/m² | - |
| 1788644819 | 24.44° C | 60% | 1018.4 hPa | 0 mm | - | 47 W/m² | - |
| 1788644520 | 25° C | 60% | 1018.5 hPa | 0 mm | - | 47 W/m² | - |
| 1788644219 | 25° C | 60% | 1018.4 hPa | 0 mm | - | 73 W/m² | - |
* Rain latest hour (hover to see other rain measurements)
** Current wind speed in m/s (hover to see current wind gust speed)